Tracking 29892 objects as of 21-Nov-2024
HD Live streaming from Space Station
objects crossing your sky now

STARLINK-32393

Track STARLINK-32393 now!
10-day predictions
STARLINK-32393 is classified as:


NORAD ID: 61862
Int'l Code: 2024-202T
Perigee: 350.2 km
Apogee: 353.2 km
Inclination: 43.0 °
Period: 91.4 minutes
Semi major axis: 6722 km
RCS: Unknown
Launch date: November 7, 2024
Source: United States (US)
Launch site: AIR FORCE EASTERN TEST RANGE (AFETR)
Your satellite tracking list
Your tracking list is empty




NASA's NSSDC Master Catalog

Two Line Element Set (TLE):
1 61862U 24202T   24326.16667824 -.00319174  00000-0 -21567-2 0  9990
2 61862  43.0024  47.0364 0002227 268.6187 225.6200 15.75008106  3163
Source of the keplerian elements: AFSPC